#timestamp,LO_Frequency,Hit,StdDev 
1656356415.1,286046998.6,N
1656356435.9,286046998.9,N
1656356455.7,286046999.2,N
1656356475.6,286046996.6,Y
1656356495.4,286047000.7,P
1656356515.2,286047002.4,N
1656356535.1,286047000.3,N
1656356536.0,286047000.3,N
1656356555.8,286047000.3,N
1656356575.6,286047000.1,N
1656356595.5,286047000.2,N
1656356615.3,286047000.1,N
1656356635.2,286046999.7,N
1656356655.9,286047002.1,N
1656356675.7,286047001.7,N
1656356695.6,286047001.5,N
1656356715.4,286047002.0,N
1656356735.2,286047001.6,N
1656356755.1,286047001.3,N
1656356756.0,286047001.3,N
1656356775.8,286047004.4,Y
1656356795.7,286047002.5,P
1656356815.5,286046999.7,N
1656356835.3,286047000.2,N
1656356855.2,286047000.1,N
1656356875.0,286047001.0,N
1656356875.9,286047001.0,N
1656356895.8,286047000.3,N
1656356915.6,286047001.2,N
1656356935.4,286047000.7,N
1656356955.3,286047001.1,N
1656356975.1,286047000.6,N
1656356995.8,286047000.7,N
1656357015.7,286047000.7,N
1656357035.5,286046998.1,Y
1656357055.4,286046998.6,P
1656357075.2,286046998.4,N
1656357095.0,286046998.5,N
1656357095.9,286046998.5,N
1656357115.8,286046998.6,N
1656357135.6,286047001.2,N
1656357155.4,286046998.1,N
1656357175.3,286046998.1,N
1656357195.1,286046998.3,N
1656357215.9,286046999.2,N
1656357235.7,286046999.0,N
1656357255.5,286046998.3,N
1656357275.4,286047001.2,N
1656357295.2,286046998.3,N
1656357315.0,286047001.2,N
1656357315.9,286047001.2,N
1656357335.8,286047000.4,N
1656357355.6,286047001.0,N
1656357375.5,286047000.7,N
1656357395.3,286047000.3,N
1656357415.1,286047000.6,N
1656357435.9,286047000.6,N
1656357455.7,286046999.8,N
1656357475.5,286047002.8,N
1656357495.4,286047002.7,N
1656357515.2,286047002.3,N
1656357535.1,286047000.2,N
1656357536.0,286047000.2,N
1656357555.8,286046999.7,N
1656357575.6,286047002.7,N
1656357595.5,286047002.1,N
1656357615.3,286047002.2,N
1656357635.1,286047002.6,N
1656357655.9,286047003.9,N
1656357675.7,286047003.2,N
1656357695.6,286047003.6,N
1656357715.4,286047001.4,N
1656357735.2,286047004.0,N
1656357755.1,286047003.3,N
1656357756.0,286047003.3,N
1656357775.8,286047003.5,N
1656357795.7,286047004.2,N
1656357815.5,286047003.8,N
1656357835.3,286047001.7,N
1656357855.2,286047001.9,N
1656357875.0,286047001.8,N
1656357875.9,286047001.8,N
1656357895.7,286047004.2,Y
1656357915.6,286047002.5,P
1656357935.4,286047002.4,P
1656357955.3,286047000.4,N
1656357975.1,286046998.3,N
1656357976.0,286046998.3,N
1656357995.8,286047000.9,N
1656358015.7,286047002.3,N
1656358035.5,286047001.4,N
1656358055.3,286047001.3,N
1656358075.2,286047001.8,N
1656358095.0,286047002.7,N
1656358095.9,286047002.7,N
1656358115.8,286047002.2,N
1656358135.6,286047002.0,N
1656358185.5,286047002.6,E
1656358195.4,286047002.4,N
1656358215.2,286046998.1,P
1656358235.1,286047001.2,N
1656358236.0,286047001.2,N
1656358255.8,286047001.1,N
1656358275.7,286047001.2,N
1656358295.5,286046998.3,N
1656358315.3,286046998.6,N
1656358335.2,286046998.4,N
1656358355.9,286046999.2,N
1656358375.7,286046998.4,N
1656358395.6,286046999.0,N
1656358415.4,286046998.9,N
1656358435.3,286046998.8,N
1656358455.1,286046998.3,N
1656358456.0,286046998.3,N
1656358475.8,286047001.1,N
1656358495.7,286047000.4,N
1656358515.5,286047000.4,N
1656358535.3,286047000.6,N
1656358555.2,286047000.3,N
1656358575.0,286047000.6,N
1656358575.9,286047000.6,N
1656358595.8,286047000.4,N
1656358615.6,286047000.6,N
1656358635.4,286047001.1,N
1656358655.3,286047000.9,N
1656358675.1,286047000.9,N
1656358695.9,286047000.0,N
1656358715.7,286047000.4,N
1656358735.5,286047000.4,N
1656358755.4,286047000.6,N
1656358775.2,286047000.9,N
1656358795.0,286047000.5,N
1656358796.0,286047000.5,N
1656358815.8,286047000.4,N
1656358835.6,286047000.6,N
1656358855.5,286047000.9,N
1656358875.3,286047000.8,N
1656358895.1,286047000.9,N
1656358915.9,286047001.2,N
1656358935.7,286047000.7,N
1656358955.6,286047001.1,N
1656358975.4,286046998.1,N
1656358995.2,286046998.1,N
1656359015.1,286047000.8,N
1656359016.0,286047000.8,N
1656359035.8,286047001.0,N
1656359055.6,286047000.9,N
1656359075.5,286047000.8,N
1656359095.3,286047001.0,N
1656359115.2,286047000.7,N
1656359135.9,286046998.4,N
1656359155.7,286047001.2,N
1656359175.6,286046998.6,N
1656359195.4,286046998.1,N
1656359215.2,286046998.6,N
1656359235.1,286046998.2,N
1656359236.0,286046998.2,N
1656359255.8,286047001.2,N
1656359275.7,286047000.7,N
1656359295.5,286046998.6,N
1656359315.3,286046998.6,N
1656359335.2,286047001.2,N
1656359355.0,286046999.3,N
1656359355.9,286046999.3,N
1656359375.7,286046998.5,N
1656359395.6,286046998.3,N
1656359415.4,286046998.1,N
1656359435.3,286046998.2,N
1656359455.1,286046998.3,N
1656359456.0,286046998.3,N
1656359475.8,286046998.5,N
1656359495.7,286046998.4,N
1656359515.5,286046998.4,N
1656359535.3,286046998.8,N
1656359555.2,286046999.5,N
1656359575.0,286046998.7,N
1656359575.9,286046998.7,N
1656359595.8,286046999.0,N
1656359615.6,286046998.5,N
1656359635.4,286046998.6,N
1656359655.3,286046998.2,N
1656359675.1,286046998.3,N
1656359695.9,286047001.1,N
1656359715.7,286047000.9,N
1656359735.5,286046999.4,N
1656359755.4,286046999.0,N
1656359775.2,286046996.6,Y
1656359795.0,286047000.7,P
1656359795.9,286047000.7,N
1656359815.8,286046998.4,N
1656359835.6,286046998.6,N
1656359855.5,286047000.3,N
1656359875.3,286047000.0,N
1656359895.1,286047000.5,N
1656359915.9,286046998.8,N
1656359935.7,286047001.0,N
1656359955.5,286047000.4,N
1656359975.4,286047000.8,N
1656359995.2,286047001.1,N
